Weather History for Edinburg, TX

Change the Weather History Date:

Monday, November 19, 2012

  Actual Average (KMFE) Record (KMFE)
Temperature  
Mean Temperature 71 °F 68 °F  
Max Temperature 81 °F 79 °F 93 °F (2011)
Min Temperature 61 °F 58 °F 33 °F (1896)
Degree Days  
Heating Degree Days 0 2  
Month to date heating degree days 24  
Since 1 July heating degree days 29  
Cooling Degree Days 6 5  
Month to date cooling degree days 138  
Year to date cooling degree days 4320  
Growing Degree Days 21 (Base 50)    
Moisture  
Dew Point 58 °F    
Average Humidity 66    
Maximum Humidity 84    
Minimum Humidity 45    
Precipitation  
Precipitation 0.00 in 0.02 in 0.59 in (1976)
Month to date precipitation 0.60  
Year to date precipitation 20.72  
Sea Level Pressure  
Sea Level Pressure 30.17 in    
Wind  
Wind Speed 3 mph (ESE)    
Max Wind Speed 13 mph    
Max Gust Speed -    
Visibility 9 miles    
Events      
T = Trace of Precipitation, MM = Missing Value Source: NWS Daily Summary

Daily Weather History Graph

Daily Weather History Graph

Search for Another Location

Airport:

Trip Planner

Search our weather history database for the weather conditions in past years. The results will help you decide how hot, cold, wet, or windy it might be!

Date:

Astronomy

Nov. 19, 2012 Rise Set
Actual Time 6:54 AM CST 5:41 PM CST
Civil Twilight 6:30 AM CST 6:05 PM CST
Nautical Twilight 6:02 AM CST 6:33 PM CST
Astronomical Twilight 5:34 AM CST 7:01 PM CST
Moon 12:10 PM CST (11/19) 11:54 PM CST (11/19)
Length of Visible Light 11h 35m
Length of Day
10h 46m
Waxing Crescent, 41% of the Moon is Illuminated
Nov 19
Waxing Crescent
Nov 20
First Quarter
Nov 28
Full
Dec 6
Last Quarter
Dec 13
New

Hourly Weather History & Observations

Time (CST) Temp. Heat Index Dew Point Humidity Pressure Visibility Wind Dir Wind Speed Gust Speed Precip Events Conditions
12:15 AM 63.7 °F - 57.0 °F 79% 30.20 in 10.0 mi Calm Calm - N/A   Clear
12:55 AM 63.3 °F - 57.2 °F 80% 30.20 in 10.0 mi Calm Calm - N/A   Mostly Cloudy
1:15 AM 64.2 °F - 58.1 °F 80% 30.20 in 10.0 mi Calm Calm - N/A   Overcast
1:35 AM 64.0 °F - 58.1 °F 81% 30.20 in 10.0 mi Calm Calm - N/A   Overcast
1:55 AM 63.7 °F - 57.6 °F 80% 30.20 in 10.0 mi Calm Calm - N/A   Overcast
2:15 AM 62.6 °F - 57.6 °F 84% 30.19 in 10.0 mi Calm Calm - N/A   Scattered Clouds
2:35 AM 63.0 °F - 57.2 °F 81% 30.18 in 10.0 mi Calm Calm - N/A   Scattered Clouds
2:55 AM 62.6 °F - 56.8 °F 81% 30.18 in 10.0 mi ESE 4.6 mph - N/A   Scattered Clouds
3:15 AM 61.7 °F - 56.7 °F 84% 30.17 in 7.0 mi ESE 3.5 mph - N/A   Scattered Clouds
3:35 AM 62.2 °F - 56.7 °F 82% 30.16 in 10.0 mi East 3.5 mph - N/A   Clear
3:55 AM 61.7 °F - 56.5 °F 83% 30.17 in 10.0 mi Calm Calm - N/A   Clear
4:15 AM 61.9 °F - 56.3 °F 82% 30.16 in 10.0 mi East 3.5 mph - N/A   Clear
4:35 AM 62.2 °F - 56.8 °F 82% 30.17 in 10.0 mi Calm Calm - N/A   Scattered Clouds
4:55 AM 61.7 °F - 56.5 °F 83% 30.16 in 10.0 mi Calm Calm - N/A   Mostly Cloudy
5:15 AM 61.9 °F - 57.0 °F 84% 30.17 in 10.0 mi Calm Calm - N/A   Overcast
5:35 AM 62.6 °F - 57.2 °F 82% 30.17 in 10.0 mi Calm Calm - N/A   Overcast
5:55 AM 63.5 °F - 57.4 °F 80% 30.17 in 10.0 mi Calm Calm - N/A   Overcast
6:15 AM 63.5 °F - 57.6 °F 81% 30.18 in 10.0 mi Calm Calm - N/A   Overcast
6:35 AM 64.4 °F - 58.1 °F 80% 30.17 in 10.0 mi ESE 3.5 mph - N/A   Overcast
6:55 AM 64.6 °F - 58.1 °F 79% 30.18 in 10.0 mi Calm Calm - N/A   Overcast
7:15 AM 65.5 °F - 58.3 °F 77% 30.18 in 10.0 mi Calm Calm - N/A   Overcast
7:35 AM 65.8 °F - 58.5 °F 77% 30.20 in 10.0 mi Calm Calm - N/A   Overcast
7:55 AM 66.6 °F - 59.0 °F 77% 30.21 in 10.0 mi Calm Calm - N/A   Overcast
8:15 AM 67.5 °F - 59.2 °F 75% 30.22 in 10.0 mi Calm Calm - N/A   Overcast
8:55 AM 70.3 °F - 59.7 °F 69% 30.22 in 7.0 mi ESE 5.8 mph - N/A   Overcast
9:15 AM 72.3 °F - 59.9 °F 65% 30.23 in 10.0 mi East 8.1 mph - N/A   Overcast
9:55 AM 75.2 °F - 59.4 °F 58% 30.24 in 7.0 mi ESE 10.4 mph - N/A   Overcast
10:15 AM 76.1 °F - 59.7 °F 57% 30.23 in 10.0 mi SE 11.5 mph - N/A   Overcast
10:35 AM 77.0 °F - 59.7 °F 55% 30.23 in 10.0 mi SE 9.2 mph - N/A   Overcast
10:55 AM 77.5 °F - 59.2 °F 53% 30.23 in 7.0 mi ESE 9.2 mph - N/A   Overcast
11:15 AM 78.4 °F - 59.2 °F 51% 30.22 in 5.0 mi SE 10.4 mph - N/A   Haze
11:35 AM 79.7 °F - 59.2 °F 49% 30.21 in 7.0 mi SSE 8.1 mph - N/A   Overcast
11:55 AM 79.0 °F - 59.2 °F 51% 30.20 in 7.0 mi ESE 8.1 mph - N/A   Overcast
12:15 PM 79.9 °F - 59.0 °F 49% 30.20 in 7.0 mi SE 5.8 mph - N/A   Overcast
12:35 PM 79.9 °F - 59.0 °F 49% 30.18 in 7.0 mi East 8.1 mph - N/A   Mostly Cloudy
12:55 PM 80.8 °F 81.2 °F 59.0 °F 47% 30.17 in 7.0 mi ESE 6.9 mph - N/A   Mostly Cloudy
1:15 PM 80.4 °F 81.0 °F 59.0 °F 48% 30.16 in 7.0 mi ESE 3.5 mph - N/A   Overcast
1:35 PM 80.1 °F 80.7 °F 58.5 °F 48% 30.15 in 7.0 mi SE 3.5 mph - N/A   Overcast
1:55 PM 80.4 °F 81.0 °F 59.2 °F 48% 30.15 in 7.0 mi East 5.8 mph - N/A   Overcast
2:15 PM 81.1 °F 81.5 °F 59.2 °F 47% 30.13 in 7.0 mi East 5.8 mph - N/A   Overcast
2:35 PM 81.7 °F 81.9 °F 58.8 °F 46% 30.12 in 7.0 mi ESE 4.6 mph - N/A   Mostly Cloudy
2:55 PM 80.8 °F 81.1 °F 58.5 °F 46% 30.12 in 7.0 mi ENE 5.8 mph - N/A   Mostly Cloudy
3:15 PM 81.0 °F 81.2 °F 58.1 °F 46% 30.12 in 5.0 mi East 4.6 mph - N/A   Haze
3:35 PM 81.1 °F 81.3 °F 57.9 °F 45% 30.12 in 7.0 mi East 4.6 mph - N/A   Overcast
3:55 PM 81.0 °F 81.1 °F 57.9 °F 45% 30.11 in 7.0 mi ESE 4.6 mph - N/A   Overcast
4:15 PM 81.0 °F 81.2 °F 58.3 °F 46% 30.11 in 7.0 mi ESE 6.9 mph - N/A   Overcast
4:35 PM 80.6 °F 81.0 °F 58.5 °F 47% 30.11 in 7.0 mi East 6.9 mph - N/A   Overcast
4:55 PM 79.9 °F - 58.5 °F 48% 30.12 in 7.0 mi East 9.2 mph - N/A   Overcast
5:15 PM 79.2 °F - 58.6 °F 49% 30.12 in 5.0 mi ESE 11.5 mph - N/A   Haze
5:35 PM 78.3 °F - 57.7 °F 49% 30.12 in 7.0 mi East 12.7 mph - N/A   Overcast
5:55 PM 76.8 °F - 57.0 °F 50% 30.13 in 7.0 mi East 12.7 mph - N/A   Overcast
6:35 PM 75.2 °F - 58.1 °F 55% 30.15 in 7.0 mi East 11.5 mph - N/A   Mostly Cloudy
6:55 PM 74.3 °F - 58.1 °F 57% 30.15 in 10.0 mi East 11.5 mph - N/A   Scattered Clouds
7:15 PM 73.4 °F - 58.1 °F 59% 30.16 in 10.0 mi ESE 9.2 mph - N/A   Clear
7:35 PM 72.1 °F - 58.3 °F 62% 30.17 in 7.0 mi ESE 9.2 mph - N/A   Clear
7:55 PM 71.6 °F - 58.5 °F 63% 30.18 in 10.0 mi ESE 6.9 mph - N/A   Clear
8:15 PM 70.7 °F - 59.0 °F 66% 30.19 in 10.0 mi ESE 6.9 mph - N/A   Clear
8:35 PM 70.0 °F - 59.0 °F 68% 30.18 in 10.0 mi ESE 8.1 mph - N/A   Clear
8:55 PM 69.4 °F - 59.0 °F 69% 30.19 in 10.0 mi ESE 6.9 mph - N/A   Clear
9:15 PM 68.5 °F - 59.0 °F 72% 30.19 in 10.0 mi Calm Calm - N/A   Clear
9:35 PM 68.9 °F - 59.0 °F 71% 30.20 in 10.0 mi Calm Calm - N/A   Clear
9:55 PM 68.2 °F - 58.8 °F 72% 30.19 in 10.0 mi SE 3.5 mph - N/A   Clear
10:15 PM 65.7 °F - 58.3 °F 77% 30.18 in 10.0 mi ESE 4.6 mph - N/A   Clear
10:55 PM 65.7 °F - 58.3 °F 77% 30.18 in 10.0 mi Calm Calm - N/A   Clear
11:15 PM 66.4 °F - 58.3 °F 75% 30.18 in 7.0 mi Calm Calm - N/A   Clear
11:35 PM 65.5 °F - 58.3 °F 77% 30.18 in 7.0 mi Calm Calm - N/A   Clear
11:55 PM 64.6 °F - 58.1 °F 79% 30.17 in 7.0 mi Calm Calm - N/A   Clear